Other Public Products
Issued by NWS Charleston, SC

Home | Current Version | Previous Version | Text Only | Print | Product List | Glossary On
Versions: 1 2 3 4 5 6 7 8 9 10 11 12 13 14 15 16 17 18 19 20 21 22 23 24 25 26 27 28 29 30 31 32 33 34 35 36 37 38 39 40 41 42 43 44 45 46 47 48 49 50
164
FPUS82 KCHS 191438
OPUCHS

TEST...KCHS/KSAV Gateway Observations...TEST
National Weather Service Charleston SC
1000 AM EDT TUE SEP 19 2017

NOTE: "fair" indicates few or no clouds below 12,000 feet with no
significant weather and/or obstructions to visibility.

SCZ050-WAZ558-NCZ071-TXZ119-213-PAZ071-DCZ001-FLZ074-172-MI076-
NYZ176-178-MAZ016-IL014-TNZ027-NJZ106-GAZ044-MD014-191500-

...Gateway Observations for Charleston International...

CITY           SKY/WX    TMP DP  RH WIND       PRES   REMARKS
Chas Airport   SUNNY     79  69  71 NE6       30.02R
Seattle        MOCLDY    51  48  89 S14       29.71R
Charlotte      MOSUNNY   75  67  76 NE5       30.07R
Dallas DFW     PTSUNNY   80  73  79 S14       29.92R
Dallas Love    PTSUNNY   80  72  76 S14       29.93R
Philladelphia  PTSUNNY   75  66  73 N17G31    29.98S
Wash National  CLOUDY    74  68  81 N12       30.01R
Baltimore      PTSUNNY   73  67  81 NE6       29.99R
Miami          MOSUNNY   86  77  74 W5        29.94R HX  97
Detroit        PTSUNNY   71  64  78 NE8       30.01R
Newark         PTSUNNY   76  66  71 N15G21    30.00S
Laguardia      PTSUNNY   73  66  78 NE18      30.01R
J F K          PTSUNNY   75  65  70 NE22G32   30.00F
Boston Logan   FOG       64  63  96 N12       30.13S VSB 1
Ft. Lauderdale MOSUNNY   88  79  74 NW5       29.93R HX 103
Chicago O`Hare CLOUDY    70  65  84 VRB3      29.96S
Chicago Midway CLOUDY    69  66  90 CALM      29.96R FOG
Houston Bush   MOSUNNY   81  78  91 S5        29.97R
Houston Hobby  MOSUNNY   83  76  79 S5        29.96R HX  91
Nashville      CLOUDY    75  68  78 S6        30.00R
Atlanta        MOSUNNY   77  65  66 NW3       30.05R

$$

GAZ044-118-TXZ119-213-NCZ071-DCZ001-MDZ014-506-PAZ021-071-NJZ106-
NYZ176-178-MAZ106-OHZ011-021-055-MIZ076-KYZ091-ILZ014-INZ047-
MNZ060-ONZ431-191500-

...Gateway Observations for Savannah International...

CITY           SKY/WX    TMP DP  RH WIND       PRES   REMARKS
Savannah Arpt  MOSUNNY   81  67  62 W7        30.02R
Atlanta        MOSUNNY   77  65  66 NW3       30.05R
Charlotte      MOSUNNY   75  67  76 NE5       30.07R
Dallas DFW     PTSUNNY   80  73  79 S14       29.92R
Houston Bush   MOSUNNY   81  78  91 S5        29.97R
Wash National  CLOUDY    74  68  81 N12       30.01R
Wash Dulles    CLOUDY    72  66  81 N12       30.03R
Baltimore      PTSUNNY   73  67  81 NE6       29.99R
Philadelphia   PTSUNNY   75  66  73 N17G31    29.98S
Newark         PTSUNNY   76  66  71 N15G21    30.00S
Laguardia      PTSUNNY   73  66  78 NE18      30.01R
J F K          PTSUNNY   75  65  70 NE22G32   30.00F
Boston         FOG       64  63  96 N12       30.13S VSB 1
Pittsburg      PTSUNNY   70  65  84 E9        30.06R
Akron          MOSUNNY   74  64  71 SE6       30.03R
Cleveland      CLOUDY    73  63  70 CALM      30.02R
Cincinnati     CLOUDY    69  69 100 SW8       30.01R
Columbus       CLOUDY    71  67  88 SE3       30.00F
Detroit        PTSUNNY   71  64  78 NE8       30.01R
Chicago O`Hare CLOUDY    70  65  84 VRB3      29.96S
Minneapolis    MOSUNNY   63  59  87 SE12      29.91F
Indianapolis   CLOUDY    68  67  96 S7        29.96F
Toronto Canada PTSUNNY   72  66  83 N3        30.04S

$$




USA.gov is the U.S. government's official web portal to all federal, state and local government web resources and services.